Location: Unnamed
(23.5608°S, 46.6833°W)
Time: 04:57:34
(UTC-03:00)

Tiros 4 - Pass Details

Date: 07 December 2023
Orbit: 683 x 792 km, 48.3° (Epoch: 24 February)

Event Time Altitude Azimuth Distance (km) Brightness Sun altitude
Exits shadow 00:51:38 17° 168° (SSE) 1,937 9.6 -42.1°
Drops below altitude 10° 00:53:06 10° 158° (SSE) 2,371 10.2 -42.0°
Sets 00:55:54 0° 147° (SSE) 3,299 11.1 -41.8°
